Voltar ao catálogo

STARLINK-3700

AtivoComunicaçõesVLEO
NORAD 51956·PAYLOAD·🇺🇸 United States

Lançado Mar 9, 2022 de Cape Canaveral Space Force Station

Loading…

Próximas Passagens (próximas 24 horas)

TLE

AtualizadoSource: CelesTrak SupGP

Época: Sep 14, 2026, 21:52 UTC

1 51956C 22025A   26257.91159722  .00008558  00000+0  27517-3 0  2572
2 51956  53.1576 213.0522 0001273  96.1247 327.6885 15.31701380    11

Acompanhe STARLINK-3700 em tempo real com AllMySat

Download on the App Store